Volver al catálogo

FREGAT DEB

ActivoUNKNOWN
NORAD 45971·DEBRIS·🇷🇺 Russia

Lanzado Jul 18, 2011 desde Baikonur Cosmodrome

Loading…

Próximos Pases (próximas 24 horas)

TLE

ActualizadoSource: Space-Track

Época: Sep 13, 2026, 10:50 UTC

1 45971U 11037GC  26256.45196916  .00015893  00000-0  14648-2 0  9991
2 45971  51.4541  61.3699 1100658  54.9702 314.9543 13.10264853280293

Sigue FREGAT DEB en tiempo real con AllMySat

Download on the App Store